sat.trackr.live / text

‹ back to catalog

STARLINK-6260

NORAD 56416 · 2023-061AU

PAYLOAD ACTIVE UNKNOWN

§ Identity

Operator
Country
US
Launch date
2023-05-04
Launch site
AFETR
Launch vehicle
Mass (kg)
RCS (m²)

Purposes: comms

External: N2YO · Heavens-Above · Gunter

§ Orbital elements

Epoch: 2026-09-20T23:30:56.397024Z

Period
94.27 min
Inclination
43.0020°
Eccentricity
0.0001438
Mean motion
15.27575902 rev/d
Perigee alt
482.1 km
Apogee alt
484.0 km
Semi-major
6,861.2 km
B*
7.0991e-6
RAAN
156.9308°
Arg perigee
268.4462°
Mean anomaly
91.6225°
Rev number
18,682

§ Raw data

STARLINK-62601 56416U 23061AU  26263.97981941 -.00000067  00000+0  70991-5 0  99952 56416  43.0020 156.9308 0001438 268.4462  91.6225 15.27575902186826

JSON: /api/v1/satellites/56416 · /tle

For live sub-satellite position, see the globe view (requires WebGL).

§ Visibility from observer

Set your observer location to see the next 7 days of passes ≥ 10°. The values pass through the URL so the page stays shareable.

No JS? Fill the form by hand. The geolocation button needs JavaScript.